Change the Weather History Date:

Tuesday, February 5, 2013

  Actual Average Record
Temperature  
Mean Temperature 32 °F -  
Max Temperature 33 °F 35 °F 60 °F (2008)
Min Temperature 30 °F 21 °F -2 °F (2009)
Degree Days  
Heating Degree Days 34    
Moisture  
Dew Point 29 °F    
Average Humidity 88    
Maximum Humidity 100    
Minimum Humidity 80    
Precipitation  
Precipitation 0.00 in - - ()
Sea Level Pressure  
Sea Level Pressure 29.83 in    
Wind  
Wind Speed 18 mph (West)    
Max Wind Speed 28 mph    
Max Gust Speed 38 mph    
Visibility 10 miles    
Events Snow    
Averages and records for this station are not official NWS values.
T = Trace of Precipitation, MM = Missing Value Source: NWS Daily Summary

Daily Weather History Graph

Daily Weather History Graph

Search for Another Location

Airport or City:

Trip Planner

Search our weather history database for the weather conditions in past years. The results will help you decide how hot, cold, wet, or windy it might be!

Date:

Astronomy

Feb. 05, 2013 Rise Set
Actual Time 7:19 AM EST 5:47 PM EST
Civil Twilight 6:52 AM EST 6:14 PM EST
Nautical Twilight 6:21 AM EST 6:46 PM EST
Astronomical Twilight 5:50 AM EST 7:16 PM EST
Moon 2:58 AM EST (2/5) 1:05 PM EST (2/5)
Length of Visible Light 11h 22m
Length of Day
10h 27m
Waning Crescent, 27% of the Moon is Illuminated
Feb 5
Waning Crescent
Feb 10
New
Feb 17
First Quarter
Feb 25
Full
Mar 4
Last Quarter

Hourly Weather History & Observations

Time (EST) Temp. Windchill Dew Point Humidity Pressure Visibility Wind Dir Wind Speed Gust Speed Precip Events Conditions
12:15 AM 30.2 °F 18.1 °F 30.2 °F 100% 29.83 in 0.5 mi West 18.4 mph - N/A Snow Light Snow
12:35 AM 30.2 °F 18.9 °F 30.2 °F 100% 29.83 in 2.5 mi West 16.1 mph 23.0 mph N/A Snow Light Snow
12:55 AM 30.2 °F 19.3 °F 30.2 °F 100% 29.82 in 10.0 mi West 15.0 mph - N/A   Overcast
1:15 AM 30.2 °F 18.1 °F 30.2 °F 100% 29.81 in 10.0 mi West 18.4 mph 24.2 mph N/A   Overcast
1:35 AM 30.2 °F 17.1 °F 30.2 °F 100% 29.80 in 10.0 mi West 21.9 mph 31.1 mph N/A   Overcast
1:55 AM 30.2 °F 17.1 °F 30.2 °F 100% 29.79 in 10.0 mi West 21.9 mph 34.5 mph N/A   Overcast
2:15 AM 32.0 °F 18.1 °F 30.2 °F 93% 29.79 in 10.0 mi West 27.6 mph 33.4 mph N/A   Overcast
2:35 AM 32.0 °F 18.9 °F 28.4 °F 87% 29.79 in 10.0 mi West 24.2 mph 38.0 mph N/A   Overcast
2:55 AM 32.0 °F 18.6 °F 28.4 °F 87% 29.78 in 10.0 mi West 25.3 mph 33.4 mph N/A   Overcast
3:15 AM 32.0 °F 18.9 °F 28.4 °F 87% 29.78 in 10.0 mi West 24.2 mph 31.1 mph N/A   Overcast
3:35 AM 32.0 °F 18.9 °F 28.4 °F 87% 29.78 in 10.0 mi West 24.2 mph 32.2 mph N/A   Overcast
3:55 AM 32.0 °F 19.5 °F 26.6 °F 80% 29.78 in 10.0 mi West 21.9 mph 28.8 mph N/A   Overcast
4:15 AM 32.0 °F 19.2 °F 26.6 °F 80% 29.78 in 10.0 mi West 23.0 mph 27.6 mph N/A   Overcast
4:35 AM 32.0 °F 19.2 °F 26.6 °F 80% 29.78 in 10.0 mi West 23.0 mph 29.9 mph N/A   Overcast
4:55 AM 32.0 °F 19.5 °F 26.6 °F 80% 29.77 in 10.0 mi West 21.9 mph 26.5 mph N/A   Overcast
5:15 AM 32.0 °F 19.5 °F 28.4 °F 87% 29.78 in 10.0 mi West 21.9 mph 31.1 mph N/A   Overcast
5:35 AM 32.0 °F 20.1 °F 26.6 °F 80% 29.77 in 10.0 mi West 19.6 mph 27.6 mph N/A   Overcast
5:55 AM 32.0 °F 20.8 °F 26.6 °F 80% 29.79 in 10.0 mi West 17.3 mph 26.5 mph N/A   Overcast
6:15 AM 32.0 °F 20.1 °F 26.6 °F 80% 29.80 in 10.0 mi West 19.6 mph 29.9 mph N/A   Overcast
6:35 AM 32.0 °F 21.2 °F 26.6 °F 80% 29.79 in 10.0 mi West 16.1 mph 23.0 mph N/A   Overcast
6:55 AM 32.0 °F 20.5 °F 26.6 °F 80% 29.80 in 10.0 mi West 18.4 mph 26.5 mph N/A   Overcast
7:15 AM 32.0 °F 20.8 °F 26.6 °F 80% 29.80 in 10.0 mi West 17.3 mph 25.3 mph N/A   Overcast
7:35 AM 32.0 °F 21.2 °F 28.4 °F 87% 29.82 in 10.0 mi West 16.1 mph 24.2 mph N/A   Overcast
7:55 AM 30.2 °F 19.3 °F 28.4 °F 93% 29.82 in 10.0 mi West 15.0 mph 20.7 mph N/A   Overcast
8:15 AM 30.2 °F 19.8 °F 28.4 °F 93% 29.83 in 10.0 mi West 13.8 mph 19.6 mph N/A   Overcast
8:35 AM 30.2 °F 19.3 °F 28.4 °F 93% 29.84 in 10.0 mi West 15.0 mph 21.9 mph N/A   Overcast
8:55 AM 32.0 °F 22.1 °F 28.4 °F 87% 29.84 in 10.0 mi West 13.8 mph 20.7 mph N/A   Overcast
9:15 AM 30.2 °F 20.2 °F 28.4 °F 93% 29.84 in 10.0 mi West 12.7 mph - N/A   Overcast
9:35 AM 32.0 °F 22.5 °F 28.4 °F 87% 29.84 in 10.0 mi West 12.7 mph 19.6 mph N/A   Overcast
9:55 AM 32.0 °F 22.1 °F 28.4 °F 87% 29.85 in 10.0 mi West 13.8 mph - N/A   Overcast
10:15 AM 32.0 °F 22.1 °F 28.4 °F 87% 29.85 in 10.0 mi WSW 13.8 mph - N/A   Overcast
10:35 AM 32.0 °F 21.6 °F 28.4 °F 87% 29.86 in 10.0 mi WSW 15.0 mph - N/A   Overcast
10:55 AM 32.0 °F 21.2 °F 28.4 °F 87% 29.86 in 7.0 mi WSW 16.1 mph 23.0 mph N/A   Overcast
11:15 AM 32.0 °F 22.1 °F 30.2 °F 93% 29.86 in 10.0 mi WSW 13.8 mph 18.4 mph N/A   Overcast
11:35 AM 32.0 °F 21.2 °F 30.2 °F 93% 29.85 in 10.0 mi West 16.1 mph - N/A   Overcast
11:55 AM 32.0 °F 21.2 °F 30.2 °F 93% 29.85 in 10.0 mi WSW 16.1 mph - N/A   Overcast
12:15 PM 30.2 °F 19.8 °F 30.2 °F 100% 29.84 in 5.0 mi WSW 13.8 mph - N/A   Overcast
12:35 PM 32.0 °F 22.1 °F 32.0 °F 100% 29.83 in 5.0 mi WSW 13.8 mph 25.3 mph N/A   Overcast
12:55 PM 32.0 °F 20.5 °F 32.0 °F 100% 29.83 in 7.0 mi West 18.4 mph - N/A   Overcast
1:15 PM 32.0 °F 20.5 °F 32.0 °F 100% 29.82 in 10.0 mi WSW 18.4 mph 24.2 mph N/A   Overcast
1:35 PM 32.0 °F 20.5 °F 32.0 °F 100% 29.82 in 10.0 mi WSW 18.4 mph - N/A   Overcast
1:55 PM 32.0 °F 20.5 °F 30.2 °F 93% 29.81 in 10.0 mi West 18.4 mph - N/A   Overcast
2:15 PM 33.8 °F 22.8 °F 30.2 °F 87% 29.81 in 10.0 mi West 18.4 mph 25.3 mph N/A   Overcast
2:35 PM 33.8 °F 23.2 °F 30.2 °F 87% 29.81 in 10.0 mi West 17.3 mph 26.5 mph N/A   Overcast
2:55 PM 33.8 °F 22.2 °F 30.2 °F 87% 29.81 in 10.0 mi West 20.7 mph 27.6 mph N/A   Overcast
3:15 PM 33.8 °F 22.5 °F 30.2 °F 87% 29.82 in 10.0 mi West 19.6 mph 26.5 mph N/A   Overcast
3:35 PM 33.8 °F 22.8 °F 30.2 °F 87% 29.82 in 10.0 mi West 18.4 mph 25.3 mph N/A   Overcast
3:55 PM 33.8 °F 22.5 °F 30.2 °F 87% 29.83 in 10.0 mi West 19.6 mph 26.5 mph N/A   Overcast
4:15 PM 33.8 °F 22.5 °F 30.2 °F 87% 29.83 in 10.0 mi West 19.6 mph 26.5 mph N/A   Overcast
4:35 PM 33.8 °F 23.2 °F 30.2 °F 87% 29.83 in 10.0 mi West 17.3 mph 24.2 mph N/A   Overcast
4:55 PM 33.8 °F 22.5 °F 30.2 °F 87% 29.83 in 10.0 mi West 19.6 mph 23.0 mph N/A   Overcast
5:15 PM 33.8 °F 23.2 °F 28.4 °F 81% 29.84 in 10.0 mi West 17.3 mph 25.3 mph N/A   Overcast
5:35 PM 33.8 °F 24.8 °F 28.4 °F 81% 29.83 in 10.0 mi West 12.7 mph 20.7 mph N/A   Mostly Cloudy
5:55 PM 33.8 °F 23.9 °F 28.4 °F 81% 29.83 in 10.0 mi West 15.0 mph 19.6 mph N/A   Scattered Clouds
6:15 PM 33.8 °F 23.9 °F 28.4 °F 81% 29.84 in 10.0 mi West 15.0 mph 20.7 mph N/A   Clear
6:35 PM 33.8 °F 23.2 °F 28.4 °F 81% 29.84 in 10.0 mi West 17.3 mph 20.7 mph N/A   Clear
6:55 PM 33.8 °F 22.8 °F 28.4 °F 81% 29.85 in 10.0 mi West 18.4 mph 21.9 mph N/A   Clear
7:15 PM 33.8 °F 23.9 °F 28.4 °F 81% 29.85 in 10.0 mi West 15.0 mph 21.9 mph N/A   Scattered Clouds
7:35 PM 33.8 °F 23.2 °F 28.4 °F 81% 29.85 in 10.0 mi West 17.3 mph 23.0 mph N/A   Mostly Cloudy
7:55 PM 33.8 °F 23.5 °F 28.4 °F 81% 29.84 in 10.0 mi West 16.1 mph 21.9 mph N/A   Overcast
8:15 PM 33.8 °F 23.5 °F 28.4 °F 81% 29.85 in 10.0 mi West 16.1 mph 24.2 mph N/A   Mostly Cloudy
8:35 PM 33.8 °F 24.3 °F 28.4 °F 81% 29.85 in 10.0 mi West 13.8 mph 20.7 mph N/A   Mostly Cloudy
8:55 PM 33.8 °F 23.9 °F 28.4 °F 81% 29.86 in 10.0 mi WSW 15.0 mph 24.2 mph N/A   Overcast
9:15 PM 33.8 °F 24.3 °F 28.4 °F 81% 29.86 in 10.0 mi West 13.8 mph - N/A   Mostly Cloudy
9:35 PM 33.8 °F 23.2 °F 30.2 °F 87% 29.86 in 10.0 mi West 17.3 mph 21.9 mph N/A   Mostly Cloudy
9:55 PM 33.8 °F 23.5 °F 30.2 °F 87% 29.86 in 10.0 mi West 16.1 mph - N/A   Mostly Cloudy
10:15 PM 33.8 °F 23.2 °F 30.2 °F 87% 29.86 in 10.0 mi West 17.3 mph 21.9 mph N/A   Mostly Cloudy
10:35 PM 33.8 °F 23.2 °F 30.2 °F 87% 29.86 in 10.0 mi West 17.3 mph 21.9 mph N/A   Mostly Cloudy
10:55 PM 33.8 °F 22.8 °F 30.2 °F 87% 29.86 in 10.0 mi West 18.4 mph 24.2 mph N/A   Overcast
11:15 PM 33.8 °F 21.9 °F 30.2 °F 87% 29.86 in 10.0 mi West 21.9 mph 28.8 mph N/A   Overcast
11:35 PM 33.8 °F 23.5 °F 30.2 °F 87% 29.87 in 10.0 mi West 16.1 mph 24.2 mph N/A   Overcast
11:55 PM 33.8 °F 23.2 °F 30.2 °F 87% 29.87 in 10.0 mi West 17.3 mph 26.5 mph N/A   Overcast